Weather History for Clearfield, PA

Change the Weather History Date:

Saturday, November 16, 2013

  Actual Average (KDUJ) Record (KDUJ)
Temperature  
Mean Temperature 44 °F 39 °F  
Max Temperature 59 °F 47 °F 63 °F (1988)
Min Temperature 30 °F 32 °F 8 °F (1967)
Degree Days  
Heating Degree Days 20 26  
Month to date heating degree days 371  
Since 1 July heating degree days 1114  
Cooling Degree Days 0 0  
Month to date cooling degree days 0  
Year to date cooling degree days 362  
Moisture  
Dew Point 36 °F    
Average Humidity 70    
Maximum Humidity 92    
Minimum Humidity 48    
Precipitation  
Precipitation 0.00 in 0.13 in 2.25 in (2006)
Month to date precipitation 1.91  
Sea Level Pressure  
Sea Level Pressure 30.22 in    
Wind  
Wind Speed 3 mph (ESE)    
Max Wind Speed 9 mph    
Max Gust Speed -    
Visibility 10 miles    
Events      
T = Trace of Precipitation, MM = Missing Value Source: NWS Daily Summary

Daily Weather History Graph

Daily Weather History Graph

Search for Another Location

Airport:

Trip Planner

Search our weather history database for the weather conditions in past years. The results will help you decide how hot, cold, wet, or windy it might be!

Date:

Astronomy

Nov. 16, 2013 Rise Set
Actual Time 7:02 AM EST 4:53 PM EST
Civil Twilight 6:33 AM EST 5:23 PM EST
Nautical Twilight 5:59 AM EST 5:56 PM EST
Astronomical Twilight 5:27 AM EST 6:29 PM EST
Moon 4:28 PM EST (11/16) 5:56 AM EST (11/16)
Length of Visible Light 10h 50m
Length of Day
9h 51m
Waxing Gibbous, 99% of the Moon is Illuminated
Nov 16
Waxing Gibbous
Nov 17
Full
Nov 25
Last Quarter
Dec 2
New
Dec 9
First Quarter

Hourly Weather History & Observations

Time (EST) Temp. Windchill Dew Point Humidity Pressure Visibility Wind Dir Wind Speed Gust Speed Precip Events Conditions
12:54 AM 37.0 °F 32.4 °F 27.0 °F 67% 30.21 in 10.0 mi North 5.8 mph - N/A   Mostly Cloudy
1:54 AM 37.0 °F - 24.1 °F 59% 30.22 in 10.0 mi Calm Calm - N/A   Scattered Clouds
2:54 AM 39.0 °F - 24.1 °F 55% 30.23 in 10.0 mi Calm Calm - N/A   Clear
3:54 AM 33.1 °F 26.9 °F 27.0 °F 78% 30.22 in 10.0 mi North 6.9 mph - N/A   Clear
4:54 AM 35.1 °F 31.0 °F 28.0 °F 76% 30.23 in 10.0 mi North 4.6 mph - N/A   Clear
5:54 AM 32.0 °F - 28.0 °F 85% 30.24 in 10.0 mi Calm Calm - N/A   Clear
6:54 AM 30.9 °F - 28.9 °F 92% 30.27 in 10.0 mi Calm Calm - N/A   Clear
7:54 AM 32.0 °F 26.4 °F 30.0 °F 92% 30.29 in 10.0 mi North 5.8 mph - N/A   Clear
8:54 AM 39.0 °F - 32.0 °F 76% 30.30 in 10.0 mi Calm Calm - N/A   Clear
9:54 AM 44.1 °F - 35.1 °F 71% 30.29 in 10.0 mi Calm Calm - N/A   Clear
10:54 AM 51.1 °F - 37.9 °F 61% 30.29 in 10.0 mi Variable 3.5 mph - N/A   Clear
11:54 AM 53.1 °F - 37.9 °F 57% 30.25 in 10.0 mi Calm Calm - N/A   Clear
12:54 PM 57.0 °F - 39.0 °F 51% 30.22 in 10.0 mi Variable 3.5 mph - N/A   Clear
1:54 PM 59.0 °F - 39.0 °F 48% 30.19 in 10.0 mi SSW 9.2 mph - N/A   Clear
2:54 PM 57.9 °F - 39.9 °F 51% 30.19 in 10.0 mi SSE 9.2 mph - N/A   Clear
3:54 PM 55.0 °F - 39.9 °F 57% 30.19 in 10.0 mi Variable 5.8 mph - N/A   Clear
4:54 PM 52.0 °F - 39.0 °F 61% 30.20 in 10.0 mi SSE 4.6 mph - N/A   Clear
5:54 PM 51.1 °F - 39.0 °F 63% 30.20 in 10.0 mi East 4.6 mph - N/A   Clear
6:54 PM 51.1 °F - 39.9 °F 66% 30.21 in 10.0 mi Calm Calm - N/A   Partly Cloudy
7:54 PM 50.0 °F - 41.0 °F 71% 30.21 in 10.0 mi Calm Calm - N/A   Scattered Clouds
8:54 PM 46.9 °F - 39.9 °F 77% 30.19 in 10.0 mi Variable 3.5 mph - N/A   Mostly Cloudy
9:54 PM 46.9 °F - 39.9 °F 77% 30.17 in 10.0 mi Calm Calm - N/A   Clear
10:54 PM 46.9 °F - 43.0 °F 86% 30.14 in 10.0 mi ESE 4.6 mph - N/A   Scattered Clouds
11:07 PM 48.0 °F - 44.1 °F 86% 30.13 in 9.0 mi ESE 4.6 mph - N/A   Mostly Cloudy
11:54 PM 48.9 °F - 45.0 °F 86% 30.14 in 9.0 mi SSE 4.6 mph - N/A   Overcast